Location: Balaclava NSW 2575, Australia
(34.4510°S, 150.4953°E)
Time: 23:02:02
(UTC+10:00)

X-37B - Pass Details

Date: 09 August 2021
Orbit: 381 x 393 km, 45.0° (Epoch: 29 August)

Event Time Altitude Azimuth Distance (km) Brightness Sun altitude
Rises 17:40:53 0° 237° (WSW) 2,314 5.2 -4.3°
Reaches altitude 10° 17:43:00 10° 234° (SW) 1,451 4.1 -4.7°
Maximum altitude 17:46:16 73° 149° (SSE) 420 0.6 -5.4°
Drops below altitude 10° 17:49:30 10° 63° (ENE) 1,434 3.0 -6.0°
Enters shadow 17:51:20 - 61° (ENE) 2,186 4.0 -6.4°
